weather.gov     
National Weather Service

Weather Roundup
NWS Homepage
This page is being discontinued on March 12, 2014.
The same data is available at this site. Please update your bookmarks.
Thank you, and we apologize for the inconvenience.
Please send an email to SR-SRH.Webmaster@noaa.gov with any concerns.


Current Version
Previous Version:    01  02  03  04  05  06  07  08  09  10  11  12  13  14  15  16  17  18  19  20  21  22  23  24  25  26  27  28  29  30  
   31  32  33  34  35  36  37  38  39  40  41  42  43  44  45  46  47  48  49  50  51  52  53  54  55  56  57  58  59  60  
[Printable]
316
NZUS99 KSGF 260907
HRRSGF

HOURLY WEATHER
NATIONAL WEATHER SERVICE SPRINGFIELD MO
400 AM CDT SUN OCT 26 2014

......SGF CWA......

CITY           SKY/WX    TMP DP  RH WIND       PRES   REMARKS
SPRINGFIELD    CLEAR     58  57  97 S6        29.99F FOG
JOPLIN         CLEAR     64  61  90 S8        29.98F
WEST PLAINS    CLEAR     59  56  89 CALM      30.02F
ROLLA          CLEAR     56  51  84 E6        30.00F
OSAGE BEACH    CLEAR     54  52  94 CALM      29.99F
BRANSON        CLEAR     61  59  94 CALM      30.02S

......SURROUNDING SGF CWA......

CITY           SKY/WX    TMP DP  RH WIND       PRES   REMARKS
CHANUTE        CLEAR     61  60  97 S8        29.94F
PARSONS        CLEAR     64  62  93 S3        29.96F
COFFEYVILLE    CLEAR     61  60  97 S5        29.95F
EMPORIA        CLEAR     61  60  97 S12       29.91F
GROVE OK       CLEAR     57  57 100 CALM      29.99F FOG
ROGERS AR      CLEAR     59  57  93 SE5       30.02F
SILOAM SPRINGS CLEAR     63  55  77 CALM      30.02S
HARRISON AR    CLEAR     59  59 100 CALM      30.02S FOG
NEAR YELLVILLE   N/A     55  52  88 CALM      30.00F VSB 3/4

......KANSAS AND MISSOURI......

CITY           SKY/WX    TMP DP  RH WIND       PRES   REMARKS
KANSAS CTY INT CLEAR     60  49  66 E12       29.95F
DOWNTOWN KC    CLEAR     59  50  72 E7        29.95F
COLUMBIA       CLEAR     57  46  66 E7        30.01F
SEDALIA        CLEAR     59  51  75 E5        30.00F
ST JOSEPH      CLEAR     58  46  64 E8        29.95F
ST LOUIS       CLEAR     56  46  69 CALM      30.03S
SPIRIT OF STL  CLEAR     48  48 100 CALM      30.02S FOG
KIRKSVILLE     CLEAR     52  38  58 E7        30.01F
WICHITA        CLEAR     62  55  77 S9        29.89F
TOPEKA         CLEAR     61  58  90 SE3       29.92F
OLATHE         CLEAR     62  56  80 SE7       29.94F

......TENNESSEE......

CITY           SKY/WX    TMP DP  RH WIND       PRES   REMARKS
MEMPHIS        CLEAR     63  61  93 SW3       30.00S
NASHVILLE      FOG       57  55  94 CALM      30.01F VSB 3/4

......ARKANSAS.......

CITY           SKY/WX    TMP DP  RH WIND       PRES   REMARKS
FAYETTEVILLE   FOG       54  54 100 CALM      30.02S VSB 1/2
FT SMITH       PTCLDY    61  60  97 CALM      29.99F FOG
LITTLE ROCK    CLEAR     61  58  90 SW3       29.99F FOG

......OKLAHOMA.......

CITY           SKY/WX    TMP DP  RH WIND       PRES   REMARKS
TULSA          CLEAR     65  61  87 E3        29.96S
PONCA CITY     CLEAR     68  57  68 S5        29.92F
MCALESTER      PTCLDY    65  60  84 S3        29.99F
OKLAHOMA CITY  CLEAR     65  57  75 S10       29.95F

......IOWA............

CITY           SKY/WX    TMP DP  RH WIND       PRES   REMARKS
DES MOINES     CLEAR     52  34  50 E7        30.01F
QUAD CITIES    CLEAR     39  35  86 CALM      30.02F

......ILLINOIS........

CITY           SKY/WX    TMP DP  RH WIND       PRES   REMARKS
QUINCY         CLEAR     52  36  54 E7        30.02F
CHICAGO        CLEAR     46  29  51 NW8       30.00S





U.S. Dept. of Commerce
NOAA National Weather Service
1325 East West Highway
Silver Spring, MD 20910
E-mail: w-nws.webmaster@noaa.gov
Page last modified: May 16, 2007
NATIONAL WEATHER SERVICE: for Safety, for Work, for Fun - FOR LIFE